Location: Allen Generating Plant
(35.0740°N, 90.1490°W)
Time: 05:05:01
(UTC+00:00)

ACS3 Solar Sail - Visible Passes

Search period start: 11 October 2024 00:00
Search period end: 21 October 2024 00:00
Orbit: 960 x 1036 km, 97.4° (Epoch: 10 October)

Date Brightness Start Highest point End Pass type
(mag) Time Alt. Az. Time Alt. Az. Time Alt. Az.
11 Oct 3.4 00:27:58 14° ENE 00:28:50 15° ENE 00:32:09 10° NNE visible
11 Oct 2.2 02:13:07 61° NNW 02:13:07 61° NNW 02:18:20 10° NNW visible
12 Oct 2.7 00:59:59 27° ENE 00:59:59 27° ENE 01:05:07 10° NNE visible
12 Oct 3.1 02:45:08 36° WNW 02:45:08 36° WNW 02:49:32 10° NNW visible
13 Oct 2.2 01:32:00 47° NE 01:32:00 47° NE 01:37:16 10° N visible
13 Oct 4.0 03:17:09 20° WNW 03:17:09 20° WNW 03:20:08 10° NW visible
14 Oct 3.5 00:18:52 13° ENE 00:19:36 13° ENE 00:22:11 10° NE visible
14 Oct 2.2 02:04:00 58° NNW 02:04:00 58° NNW 02:08:58 10° NNW visible
15 Oct 2.9 00:50:51 24° ENE 00:50:51 24° ENE 00:55:32 10° NNE visible
15 Oct 3.0 02:36:00 38° NW 02:36:00 38° NW 02:40:15 10° NNW visible
16 Oct 2.3 01:22:51 41° NE 01:22:51 41° NE 01:27:46 10° N visible
16 Oct 3.9 03:07:59 22° WNW 03:07:59 22° WNW 03:10:59 10° NW visible
17 Oct 3.6 00:09:41 11° ENE 00:10:18 11° ENE 00:11:45 10° NE visible
17 Oct 2.3 01:54:49 53° N 01:54:49 53° N 01:59:31 10° N visible
17 Oct 4.6 03:39:58 11° WNW 03:39:58 11° WNW 03:40:21 10° WNW visible
18 Oct 3.0 00:41:39 21° ENE 00:41:39 21° ENE 00:45:47 10° NNE visible
18 Oct 3.0 02:26:47 39° NW 02:26:47 39° NW 02:30:52 10° NNW visible
19 Oct 2.5 01:13:37 35° NE 01:13:37 35° NE 01:18:09 10° N visible
19 Oct 3.8 02:58:45 23° WNW 02:58:45 23° WNW 03:01:42 10° NW visible
20 Oct 2.4 01:45:33 47° N 01:45:33 47° N 01:49:58 10° N visible
20 Oct 4.5 03:30:42 12° WNW 03:30:42 12° WNW 03:31:31 10° NW visible
